IZ1CYF-3 Weather Reports


Display with metric or nautical units.
time (UTC)temp
F
wind
direction
speed
MPH
gust
MPH
rain 1hr
in
rain 24hr
in
rain mn
in
humidity
%
barometer
mb
20260503130159 71 0.0 0.0 0.00 0.00 0.00 41 1017.5
20260503120159 65 0.0 0.0 0.00 0.00 0.00 44 1019.8
20260503110159 68 0.0 0.0 0.00 0.00 0.00 39 1018.8
20260503100159 76 0.0 0.0 0.00 0.00 0.00 34 1017.1
20260503090159 73 0.0 0.0 0.00 0.00 0.00 36 1018.0
20260503080159 63 0.0 0.0 0.00 0.00 0.00 46 1020.6
20260503070159 62 0.0 0.0 0.00 0.00 0.00 48 1021.1
20260503060159 60 0.0 0.0 0.00 0.00 0.00 48 1021.4
20260503053159 59 0.0 0.0 0.00 0.00 0.00 48 1021.9
20260503050159 57 0.0 0.0 0.00 0.00 0.00 53 1022.2
20260503043159 56 0.0 0.0 0.00 0.00 0.00 52 1022.2
20260503040159 55 0.0 0.0 0.00 0.00 0.00 52 1022.8
20260503033159 54 0.0 0.0 0.00 0.00 0.00 56 1023.3
20260503030159 53 0.0 0.0 0.00 0.00 0.00 55 1023.6
20260503023159 53 0.0 0.0 0.00 0.00 0.00 42 1023.7
20260503020159 51 0.0 0.0 0.00 0.00 0.00 46 1024.3
20260503013159 53 0.0 0.0 0.00 0.00 0.00 46 1024.0
20260503010159 53 0.0 0.0 0.00 0.00 0.00 47 1024.2
20260503003159 54 0.0 0.0 0.00 0.00 0.00 51 1024.2
20260503000159 51 0.0 0.0 0.00 0.00 0.00 58 1025.1
20260502233159 54 0.0 0.0 0.00 0.00 0.00 52 1024.8
20260502230159 54 0.0 0.0 0.00 0.00 0.00 52 1024.9
20260502223159 54 0.0 0.0 0.00 0.00 0.00 52 1024.9
20260502220159 57 0.0 0.0 0.00 0.00 0.00 41 1024.2
20260502213159 58 0.0 0.0 0.00 0.00 0.00 43 1024.1
20260502210159 56 0.0 0.0 0.00 0.00 0.00 50 1024.6
20260502203159 56 0.0 0.0 0.00 0.00 0.00 55 1024.8
20260502200159 57 0.0 0.0 0.00 0.00 0.00 44 1024.6
20260502193159 56 0.0 0.0 0.00 0.00 0.00 51 1024.8
20260502190159 58 0.0 0.0 0.00 0.00 0.00 43 1023.9
20260502183159 60 0.0 0.0 0.00 0.00 0.00 50 1023.2
20260502180159 63 0.0 0.0 0.00 0.00 0.00 49 1022.2